Regional Weather Roundup
Issued by NWS Memphis, TN

Home | Current Version | Previous Version | Text Only | Print | Product List | Glossary On
Versions: 1 2 3 4 5 6 7 8 9 10 11 12 13 14 15 16 17 18 19 20 21 22 23 24 25 26 27 28 29 30 31 32 33 34 35 36 37 38 39 40 41 42 43 44 45 46 47 48 49 50
000
ASUS44 KMEG 042000
RWRMEG
MEMPHIS CWA HOURLY WEATHER ROUNDUP
NATIONAL WEATHER SERVICE MEMPHIS TN
300 PM CDT FRI SEP 04 2015

...WEST TENNESSEE...

CITY           SKY/WX    TMP DP  RH WIND       PRES   REMARKS
MEMPHIS INTL   PTSUNNY   91  67  44 CALM      29.99F HX  94
NWS MEMPHIS      N/A     95 N/A N/A MISG        N/A
JACKSON        MOSUNNY   91  69  48 CALM      30.00F HX  96
LEXINGTON      MOSUNNY   93  66  40 VRB5      29.99F HX  96
DYERSBURG      PTSUNNY   91  70  49 N3        30.00F HX  97
UNION CITY     SUNNY     91  70  49 NW6       29.99F HX  97
PARIS          SUNNY     91  66  43 SE3       30.01F HX  94


...EASTERN ARKANSAS...

CITY           SKY/WX    TMP DP  RH WIND       PRES   REMARKS
JONESBORO      SUNNY     90  70  51 E5        29.98F HX  95
WEST MEMPHIS   PTSUNNY   91  70  49 NE3       29.97F HX  96
BATESVILLE     MOSUNNY   93  72  49 SE7       30.00F HX 100
WALNUT RIDGE   MOSUNNY   91  66  43 CALM      29.99F HX  94
BLYTHEVILLE    MOSUNNY   94  70  45 E5        30.00F HX 100
SEARCY         MOSUNNY   96  69  41 E7        29.99F HX 102
STUTTGART      SUNNY     93  66  40 NE6       29.97F HX  96
PINE BLUFF     SUNNY     94  70  45 E6        29.95F HX 100
MONTICELLO     MOSUNNY   94  68  42 CALM      29.95F HX  98


...NORTH MISSISSIPPI...

CITY           SKY/WX    TMP DP  RH WIND       PRES   REMARKS
TUPELO         PTSUNNY   93  70  46 W6        29.98F HX  99
OXFORD         PTSUNNY   90  66  45 E3        30.01F HX  92
OLIVE BRANCH   MOSUNNY   93  70  46 SE7       29.99F HX  99
GREENWOOD      MOSUNNY   96  62  32 N7        29.95F HX  97
COLUMBUS       MOSUNNY   92  70  48 NE5       29.97F HX  97
STARKVILLE     FAIR      93  64  38 N6        29.97F HX  95
GOLDEN TRIANGL MOSUNNY   97  70  41 CALM      29.97F HX 103


...SOUTHEAST MISSOURI...

CITY           SKY/WX    TMP DP  RH WIND       PRES   REMARKS
WEST PLAINS    MOSUNNY   88  66  48 VRB5      30.05F HX  90
POPLAR BLUFF   MOSUNNY   90  68  48 VRB3      30.00F HX  94
CAPE GIRARDEAU MOSUNNY   90  67  46 CALM      30.00F HX  93


...NORTHWEST ALABAMA...

CITY           SKY/WX    TMP DP  RH WIND       PRES   REMARKS
MUSCLE SHOALS  MOSUNNY   93  65  39 VRB5      30.01F HX  95


...MIDDLE TENNESSEE...

CITY           SKY/WX    TMP DP  RH WIND       PRES   REMARKS
NASHVILLE      PTSUNNY   92  62  36 VRB6      30.01F HX  92
CLARKSVILLE    MOSUNNY   91  66  43 CALM      30.00F HX  93
COLUMBIA       SUNNY     93  66  40 E8        29.99F HX  96


...WESTERN KENTUCKY...

CITY           SKY/WX    TMP DP  RH WIND       PRES   REMARKS
PADUCAH        MOSUNNY   93  65  39 CALM      30.00F HX  95
FORT CAMPBELL  MOSUNNY   93  65  40 NE2       30.00F HX  95


...CENTRAL ARKANSAS...

CITY           SKY/WX    TMP DP  RH WIND       PRES   REMARKS
LITTLE ROCK    MOSUNNY   97  66  36 E9        29.96F HX 100


SKY/WX REPORTED AS FAIR MEANS FEW OR NO CLOUDS BELOW
12 THOUSAND FEET.



USA.gov is the U.S. government's official web portal to all federal, state and local government web resources and services.